Weather reports worldwide

Advertisment
Langres, France (7283): temperature & dewpoint: 08.12.2019 03:00:00 - 14.12.2019 03:00:00 (CET)Langres, France (7283): temperature 5cm: 08.12.2019 03:00:00 - 14.12.2019 03:00:00 (CET)Langres, France (7283): wind speed & gusts: 08.12.2019 03:00:00 - 14.12.2019 03:00:00 (CET)Langres, France (7283): wind direction: 08.12.2019 03:00:00 - 14.12.2019 03:00:00 (CET)Langres, France (7283): reduced air pressure: 08.12.2019 03:00:00 - 14.12.2019 03:00:00 (CET)Langres, France (7283): visibility: 08.12.2019 03:00:00 - 14.12.2019 03:00:00 (CET)Langres, France (7283): sunshine duration: 08.12.2019 03:00:00 - 14.12.2019 03:00:00 (CET)Langres, France (7283): precipitation: 08.12.2019 03:00:00 - 14.12.2019 03:00:00 (CET)
Date & Time tt [°C] td [°C] tt 5cm [°C] ff [km/h] ff [kn] fx [km/h] fx [kn] dd ppp [hPa] vv [km] sd [min] rr [mm]
14.12.2019 03:00:00 3,6 3,6 3,4 35 19 59 32 S 992,9 3,4 0 1,0
14.12.2019 02:00:00 3,5 3,4 3,2 32 17 57 31 SSW 993,6 3,6 0 1,2
14.12.2019 01:00:00 3,3 3,2 2,8 22 12 44 24 SSW 994,6 6 0 1,2
14.12.2019 00:00:00 2,9 2,5 2,3 25 14 45 25 SSW 995,1 19 0 0,0
13.12.2019 23:00:00 3,1 2,1 2,5 18 10 30 16 SSW 996,4 20 0 0,0
13.12.2019 22:00:00 3,5 2,0 1,6 15 8 32 17 SW 996,9 20 0 0,0
13.12.2019 21:00:00 2,8 1,3 1,6 18 10 44 24 WSW 996,2 20 0 0,0
13.12.2019 20:00:00 3,2 1,4 2,1 26 14 50 27 WSW 996,0 20 0 0,0
13.12.2019 19:00:00 3,5 1,0 2,6 29 15 48 26 W 995,2 20 0 0,0
13.12.2019 18:00:00 4,0 0,1 2,7 27 14 50 27 W 994,0 20 0 0,0
13.12.2019 17:00:00 4,2 0,5 2,8 27 15 63 34 W 992,5 20 17 0,0
13.12.2019 16:00:00 4,8 1,1 3,7 29 15 60 32 W 991,0 20 1 0,0
13.12.2019 15:00:00 4,8 1,3 3,7 33 18 59 32 WSW 989,6 20 14 0,0
13.12.2019 14:00:00 4,7 1,7 3,7 32 17 55 30 W 988,7 20 0 0,0
13.12.2019 13:00:00 3,9 2,4 3,7 27 15 61 33 W 988,0 8 0 0,2
13.12.2019 12:00:00 3,9 2,7 3,4 32 17 58 31 WSW 986,8 12 0 0,8
13.12.2019 11:00:00 3,8 2,8 3,4 31 17 65 35 W 986,0 7 2 1,0
13.12.2019 10:00:00 4,5 2,2 3,6 35 19 63 34 W 984,3 20 6 0,0
13.12.2019 09:00:00 4,5 3,0 3,5 34 18 66 35 WSW 982,8 18 0 0,2
13.12.2019 08:00:00 4,9 3,2 3,8 32 17 56 30 W 980,9 20 0 0,0
13.12.2019 07:00:00 4,2 3,6 3,4 16 9 40 22 WSW 979,9 19 0 3,4
13.12.2019 06:00:00 3,6 3,6 3,1 21 11 57 31 SSW 980,2 6 0 4,3
13.12.2019 05:00:00 3,0 3,0 2,9 31 17 56 30 S 980,3 6 0 1,8
13.12.2019 04:00:00 2,8 2,8 2,7 26 14 51 27 S 983,0 5 0 1,8
13.12.2019 03:00:00 2,6 2,6 2,3 27 15 48 26 S 985,2 0,1 0 0,0
13.12.2019 02:00:00 2,3 2,3 1,8 26 14 53 28 S 986,6 0,1 0 0,0
13.12.2019 01:00:00 1,9 1,9 1,2 27 15 51 28 S 988,2 0,6 0 0,0
13.12.2019 00:00:00 1,5 1,5 0,1 33 18 60 32 S 989,5 4,1 0 0,0
12.12.2019 23:00:00 1,0 1,0 0,1 34 18 56 30 S 990,7 3,9 0 1,2
12.12.2019 22:00:00 0,3 0,2 0,1 32 18 51 28 S 992,1 1,1 0 2,2
12.12.2019 21:00:00 0,5 0,1 0,1 29 16 55 30 S 993,9 1,7 0 0,8
12.12.2019 20:00:00 1,9 -0,7 0,6 27 15 48 26 S 995,2 20 0 0,0
12.12.2019 19:00:00 1,7 -0,9 0,4 27 15 50 27 S 996,8 20 0 0,0
12.12.2019 18:00:00 1,7 -0,6 0,5 26 14 56 30 S 998,2 20 0 0,0
12.12.2019 17:00:00 1,7 0,1 0,8 26 14 47 26 S 999,8 20 4 0,0
12.12.2019 16:00:00 2,4 0,9 2,2 23 12 40 22 S 1001,6 20 7 0,0
12.12.2019 15:00:00 2,4 1,1 2,3 19 11 41 22 S 1003,2 20 9 0,0
12.12.2019 14:00:00 2,9 1,4 2,7 18 10 42 23 S 1004,4 20 6 0,0
12.12.2019 13:00:00 2,3 1,3 2,3 19 10 34 18 S 1006,1 20 0 0,0
12.12.2019 12:00:00 1,8 1,1 2,4 18 10 30 16 SSW 1007,6 20 0 0,0
12.12.2019 11:00:00 2,3 1,6 2,4 15 8 24 13 SSW 1008,8 20 3 0,0
12.12.2019 10:00:00 1,7 1,1 1,5 14 8 25 13 SW 1009,1 20 0 0,0
12.12.2019 09:00:00 1,3 1,0 0,4 10 6 18 10 SW 1009,2 17 0 0,2
12.12.2019 08:00:00 1,5 1,1 1,1 10 6 24 13 SW 1009,2 11 0 0,0
12.12.2019 07:00:00 1,3 0,9 0,7 14 8 34 18 WSW 1009,0 16 0 0,2
12.12.2019 06:00:00 1,3 1,0 0,6 17 9 36 19 W 1008,6 19 0 0,0
12.12.2019 05:00:00 0,8 0,7 0,1 18 10 38 21 W 1008,4 11 0 0,2
12.12.2019 04:00:00 1,6 1,0 1,4 23 12 47 26 W 1007,8 7 0 0,2
12.12.2019 03:00:00 2,6 2,2 2,1 15 8 29 16 SW 1007,3 10 0 0,0
12.12.2019 02:00:00 2,3 2,0 2,2 16 9 31 17 SSW 1007,4 19 0 0,0
12.12.2019 01:00:00 2,4 2,4 2,5 16 9 34 19 SSW 1007,9 5 0 0,2
12.12.2019 00:00:00 2,7 2,7 2,5 15 8 28 15 S 1008,5 0,4 0 0,0
11.12.2019 23:00:00 2,6 2,6 2,4 16 8 29 15 S 1008,9 3,0 0 0,0
11.12.2019 22:00:00 2,5 2,5 2,3 18 10 29 16 S 1009,7 2,2 0 0,0
11.12.2019 21:00:00 2,6 2,6 2,6 13 7 26 14 S 1010,7 0,3 0 0,0
11.12.2019 20:00:00 2,8 2,8 2,6 15 8 28 15 SSW 1011,2 0,2 0 0,0
11.12.2019 19:00:00 3,6 2,9 2,8 16 9 27 15 SW 1011,2 20 0 0,0
11.12.2019 18:00:00 3,8 3,4 3,4 12 6 28 15 SW 1011,4 20 0 0,0
11.12.2019 17:00:00 3,6 3,0 3,1 17 9 31 17 WSW 1011,0 20 0 0,0
11.12.2019 16:00:00 3,3 2,6 3,1 19 10 36 20 WSW 1010,8 19 0 0,6
11.12.2019 15:00:00 3,3 2,9 2,2 17 9 31 17 WSW 1010,3 18 0 1,8
11.12.2019 14:00:00 1,9 1,8 2,1 16 8 33 18 SSW 1010,6 5 0 1,2
11.12.2019 13:00:00 2,2 1,0 2,3 19 11 35 19 SSW 1010,8 16 0 0,2
11.12.2019 12:00:00 2,4 0,9 2,2 20 11 42 23 S 1011,8 20 0 0,0
11.12.2019 11:00:00 2,1 0,8 1,6 25 13 46 25 SSW 1013,2 20 0 0,0
11.12.2019 10:00:00 1,2 0,6 0,8 24 13 42 23 SSW 1014,2 14 0 0,0
11.12.2019 09:00:00 0,7 0,3 0,5 23 12 39 21 S 1014,7 9 0 0,8
11.12.2019 08:00:00 0,5 0,1 0,4 19 11 37 20 S 1014,9 13 0 0,6
11.12.2019 07:00:00 0,4 -0,2 0,4 21 11 33 18 S 1015,7 13 0 0,0
11.12.2019 06:00:00 0,7 -0,5 0,7 19 10 39 21 S 1016,5 16 0 0,0
11.12.2019 05:00:00 0,7 -0,5 0,6 13 7 33 18 S 1017,3 18 0 0,0
11.12.2019 04:00:00 0,6 -0,6 0,4 19 10 38 21 S 1017,9 20 0 0,0
11.12.2019 03:00:00 1,2 -0,4 0,8 22 12 41 22 S 1018,7 20 0 0,0
11.12.2019 02:00:00 1,2 -0,4 0,8 18 10 33 18 S 1019,4 20 0 0,0
11.12.2019 01:00:00 1,4 -0,5 0,4 19 10 35 19 S 1020,3 20 0 0,0
11.12.2019 00:00:00 1,3 -0,3 0,1 17 9 32 17 S 1021,4 20 0 0,0
10.12.2019 23:00:00 1,2 -0,3 -1,0 17 9 32 17 S 1022,3 20 0 0,0
10.12.2019 22:00:00 0,7 -0,8 -2,0 12 7 24 13 S 1023,0 20 0 0,0
10.12.2019 21:00:00 0,0 -1,1 -3,0 12 6 23 12 S 1023,8 20 0 0,0
10.12.2019 20:00:00 -0,6 -1,2 -4,1 12 6 19 10 S 1024,6 20 0 0,0
10.12.2019 19:00:00 -0,5 -1,1 -4,1 8 4 14 8 S 1025,2 20 0 0,0
10.12.2019 18:00:00 0,7 -0,6 -3,2 5 3 10 6 S 1025,9 20 0 0,0
10.12.2019 17:00:00 1,2 -0,7 -1,6 6 3 13 7 S 1026,4 20 17 0,0
10.12.2019 16:00:00 3,7 0,2 1,8 8 5 14 7 SSE 1026,2 20 29 0,0
10.12.2019 15:00:00 4,3 0,4 4,8 9 5 19 10 S 1026,9 20 38 0,0
10.12.2019 14:00:00 6,2 1,7 8,8 13 7 21 11 S 1027,2 20 60 0,0
10.12.2019 13:00:00 5,4 1,1 8,4 12 7 22 12 S 1028,5 12 60 0,0
10.12.2019 12:00:00 5,0 0,9 5,0 10 5 18 10 S 1029,3 19 60 0,0
10.12.2019 11:00:00 3,2 1,2 2,2 7 4 15 8 SSW 1030,5 17 60 0,0
10.12.2019 10:00:00 2,5 0,9 -1,3 9 5 13 7 S 1030,4 17 60 0,0
10.12.2019 09:00:00 0,6 -0,4 -1,4 2 1 13 7 S 1030,5 17 7 0,0
10.12.2019 08:00:00 0,8 -0,2 -1,1 7 4 14 8 W 1029,8 19 0 0,0
10.12.2019 07:00:00 1,4 -0,1 -0,8 4 2 11 6 WNW 1029,0 20 0 0,0
10.12.2019 06:00:00 2,0 0,5 1,5 4 2 11 6 NW 1029,2 20 0 0,0
10.12.2019 05:00:00 2,2 1,0 2,0 8 4 19 10 WNW 1029,3 19 0 0,0
10.12.2019 04:00:00 2,4 1,2 2,1 5 3 19 10 WNW 1028,3 18 0 0,0
10.12.2019 03:00:00 2,6 1,3 2,1 9 5 25 13 NW 1027,7 20 0 0,0
10.12.2019 02:00:00 2,8 1,2 1,7 9 5 26 14 NNW 1026,5 20 0 0,0
10.12.2019 01:00:00 3,0 1,4 2,5 14 8 31 17 NW 1025,6 20 0 0,0
10.12.2019 00:00:00 3,1 1,6 1,7 16 9 44 24 NW 1024,4 20 0 0,0
09.12.2019 23:00:00 2,9 1,7 2,1 18 10 43 23 WNW 1023,2 20 0 0,0
09.12.2019 22:00:00 3,9 1,3 2,9 19 11 57 31 NW 1021,7 15 0 0,0
09.12.2019 21:00:00 4,1 1,1 2,8 24 13 50 27 WNW 1020,1 20 0 0,0
09.12.2019 20:00:00 4,4 1,1 3,1 26 14 52 28 WNW 1018,4 20 0 0,0
09.12.2019 19:00:00 4,6 1,8 3,3 24 13 50 27 WNW 1016,8 20 0 0,0
09.12.2019 18:00:00 4,7 3,0 3,8 22 12 48 26 WNW 1015,1 20 0 0,0
09.12.2019 17:00:00 4,7 3,2 4,0 24 13 56 30 WNW 1013,1 20 0 0,0
09.12.2019 16:00:00 4,8 3,5 4,1 21 11 51 27 WNW 1011,2 20 0 2,0
09.12.2019 15:00:00 5,5 4,1 5,0 20 11 64 35 WNW 1009,3 17 0 0,2
09.12.2019 14:00:00 5,9 4,5 5,4 31 17 68 37 W 1007,2 19 0 1,0
09.12.2019 13:00:00 5,6 4,7 4,9 32 18 63 34 WSW 1006,3 4,5 0 1,6
09.12.2019 12:00:00 5,4 4,5 5,0 24 13 45 24 WSW 1006,2 8 0 1,5
09.12.2019 11:00:00 5,7 4,5 4,6 23 13 48 26 WSW 1006,6 20 0 0,6
09.12.2019 10:00:00 4,8 4,4 4,1 18 10 46 25 WSW 1006,6 8 0 1,8
09.12.2019 09:00:00 4,9 4,0 3,8 21 11 55 30 SW 1006,6 12 0 1,4
09.12.2019 08:00:00 4,7 3,7 4,2 22 12 46 25 SW 1007,1 9 0 1,2
09.12.2019 07:00:00 5,3 3,5 3,6 23 13 52 28 SW 1007,0 18 0 0,0
09.12.2019 06:00:00 5,2 3,0 3,6 23 12 59 32 SW 1007,5 20 0 0,0
09.12.2019 05:00:00 5,7 4,0 4,5 26 14 51 27 SW 1007,9 20 0 0,0
09.12.2019 04:00:00 5,8 3,6 4,4 25 14 53 29 SW 1008,4 20 0 0,0
09.12.2019 03:00:00 5,7 4,0 4,3 22 12 50 27 SW 1009,3 20 0 0,0
09.12.2019 02:00:00 5,9 4,7 4,2 26 14 52 28 SW 1009,7 20 0 0,8
09.12.2019 01:00:00 5,6 4,6 5,0 28 15 53 29 WSW 1010,4 6 0 1,0
09.12.2019 00:00:00 6,4 4,2 5,0 24 13 53 29 SW 1010,2 20 0 0,0
08.12.2019 23:00:00 6,5 4,2 4,7 26 14 54 29 SW 1010,5 20 0 0,0
08.12.2019 22:00:00 6,5 3,8 4,7 22 12 49 26 W 1011,0 20 0 0,0
08.12.2019 21:00:00 8,2 4,2 6,4 28 15 44 24 WSW 1010,2 20 0 0,0
08.12.2019 20:00:00 8,8 8,3 7,8 23 13 45 24 WSW 1009,7 8 0 0,8
08.12.2019 19:00:00 7,9 7,9 7,7 24 13 43 23 SSW 1009,6 3,1 0 0,6
08.12.2019 18:00:00 7,7 7,7 7,4 21 11 41 22 SSW 1009,9 1,7 0 0,2
08.12.2019 17:00:00 7,5 7,5 7,4 25 14 49 26 SSW 1010,4 1,8 0 1,0
08.12.2019 16:00:00 7,8 7,5 7,7 27 15 51 27 S 1010,7 6 0 0,8
08.12.2019 15:00:00 8,2 7,8 8,0 26 14 45 24 SSW 1011,2 10 0 0,4
08.12.2019 14:00:00 8,4 7,8 8,1 22 12 40 22 SSW 1012,0 15 0 1,0
08.12.2019 13:00:00 8,7 7,5 8,2 25 14 42 23 SSW 1013,0 20 0 0,0
08.12.2019 12:00:00 8,2 7,3 7,9 19 11 38 20 SSW 1014,2 13 0 0,0
08.12.2019 11:00:00 7,6 7,3 7,4 22 12 38 21 SSW 1015,1 12 0 0,0
08.12.2019 10:00:00 7,2 6,9 6,9 26 14 44 24 S 1015,3 20 0 0,0
08.12.2019 09:00:00 6,9 6,9 6,6 25 13 44 24 SSW 1015,8 10 0 0,0
08.12.2019 08:00:00 6,7 6,7 6,5 21 12 40 21 S 1015,7 4,3 0 0,0
08.12.2019 07:00:00 6,6 6,6 6,5 21 11 38 21 S 1016,1 0,9 0 0,0
08.12.2019 06:00:00 6,6 6,5 6,0 20 11 36 20 SSW 1016,3 2,8 0 0,0
08.12.2019 05:00:00 6,3 6,2 6,0 19 11 36 19 SSW 1017,1 6 0 0,0
08.12.2019 04:00:00 6,3 6,2 5,9 18 10 29 16 S 1018,0 8 0 0,0
08.12.2019 03:00:00 6,4 5,8 5,9 11 6 21 11 SSW 1018,7 20 0 0,0

tt = temperature
td = dewpoint
tt 5cm = temperature 5cm
ff = wind speed
fx = gusts
dd = wind direction
ppp = reduced air pressure
vv = visibility
sd = sunshine duration
rr = precipitation

Next stations